#timestamp,LO_Frequency,Hit,StdDev 
1620459615.6,286046906.6,P
1620459635.5,286046902.2,P
1620459655.3,286046903.3,P
1620459675.1,286046902.7,Y
1620459695.9,286046997.3,P
1620459715.7,286046997.3,N
1620459735.6,286046994.9,N
1620459755.4,286046995.6,N
1620459775.2,286046997.4,N
1620459795.1,286046996.2,N
1620459796.0,286046996.2,N
1620459815.8,286046994.1,N
1620459835.6,286046992.0,N
1620459855.5,286046990.8,N
1620459875.3,286046991.5,N
1620459895.2,286046989.3,N
1620459915.9,286046985.5,N
1620459935.7,286046986.8,N
1620459955.6,286046984.7,N
1620459975.4,286046982.6,N
1620459995.2,286046983.3,N
1620460015.1,286046981.7,N
1620460016.0,286046981.7,N
1620460035.8,286046982.8,N
1620460055.7,286046980.6,N
1620460075.5,286046983.5,N
1620460095.3,286046980.8,N
1620460115.2,286046981.5,N
1620460135.0,286046977.6,N
1620460135.9,286046977.6,N
1620460155.8,286046978.3,N
1620460175.6,286046977.2,N
1620460195.4,286046972.5,N
1620460215.3,286046971.8,N
1620460235.1,286046972.3,Y
1620460255.9,286046982.5,P
1620460275.7,286046983.6,P
1620460295.5,286046982.3,P
1620460315.4,286046983.4,Y
1620460335.2,286046997.0,P
1620460355.0,286046997.9,N
1620460355.9,286046997.9,N
1620460375.8,286046995.9,N
1620460395.6,286046994.6,N
1620460415.5,286046992.7,N
1620460435.3,286046991.6,N
1620460455.1,286046989.2,N
1620460475.9,286046987.0,N
1620460495.7,286046988.3,N
1620460515.5,286046988.4,N
1620460535.4,286046986.4,Y
1620460555.2,286046993.0,P
1620460575.1,286046992.3,P
1620460576.0,286046992.3,P
1620460595.8,286046992.7,Y
1620460615.6,286047000.8,P
1620460635.5,286046999.5,N
1620460655.3,286046996.8,N
1620460675.2,286046995.7,N
1620460695.9,286046994.4,N
1620460715.7,286046990.3,Y
1620460735.6,286046994.5,P
1620460755.4,286046992.0,P
1620460775.2,286046986.3,P
1620460795.1,286046991.1,N
1620460796.0,286046991.1,N
